Weather History for Osceola Municipal, IA

Change the Weather History Date:

Friday, October 25, 2013

  Actual Average (KLWD) Record (KLWD)
Temperature  
Mean Temperature 40 °F 50 °F  
Max Temperature 54 °F 60 °F 79 °F (1963)
Min Temperature 26 °F 40 °F 27 °F (1962)
Degree Days  
Heating Degree Days 25 15  
Month to date heating degree days 283  
Since 1 July heating degree days 383  
Cooling Degree Days 0 0  
Month to date cooling degree days 11  
Year to date cooling degree days 944  
Moisture  
Dew Point 25 °F    
Average Humidity 57    
Maximum Humidity 83    
Minimum Humidity 31    
Precipitation  
Precipitation 0.00 in 0.11 in 0.95 in (2006)
Month to date precipitation 2.32  
Sea Level Pressure  
Sea Level Pressure 30.28 in    
Wind  
Wind Speed 9 mph (SW)    
Max Wind Speed 20 mph    
Max Gust Speed 25 mph    
Visibility 9 miles    
Events      
T = Trace of Precipitation, MM = Missing Value Source: NWS Daily Summary

Daily Weather History Graph

Daily Weather History Graph

Search for Another Location

Airport:

Trip Planner

Search our weather history database for the weather conditions in past years. The results will help you decide how hot, cold, wet, or windy it might be!

Date:

Astronomy

Oct. 25, 2013 Rise Set
Actual Time 7:37 AM CDT 6:19 PM CDT
Civil Twilight 7:09 AM CDT 6:47 PM CDT
Nautical Twilight 6:37 AM CDT 7:19 PM CDT
Astronomical Twilight 6:05 AM CDT 7:51 PM CDT
Moon 11:38 PM CDT (10/25) 1:19 PM CDT (10/25)
Length of Visible Light 11h 37m
Length of Day
10h 41m
Waning Gibbous, 62% of the Moon is Illuminated
Oct 25
Waning Gibbous
Oct 26
Last Quarter
Nov 3
New
Nov 9
First Quarter
Nov 17
Full

Hourly Weather History & Observations

Time (CDT) Temp. Windchill Dew Point Humidity Pressure Visibility Wind Dir Wind Speed Gust Speed Precip Events Conditions
12:15 AM 31.1 °F 25.4 °F 24.8 °F 77% 30.38 in 10.0 mi WSW 5.8 mph - N/A   Clear
12:35 AM 30.9 °F 25.2 °F 24.8 °F 78% 30.39 in 10.0 mi WSW 5.8 mph - N/A   Clear
12:55 AM 30.6 °F 24.7 °F 24.6 °F 79% 30.39 in 10.0 mi WSW 5.8 mph - N/A   Clear
1:15 AM 30.7 °F 24.9 °F 24.4 °F 77% 30.39 in 10.0 mi WSW 5.8 mph - N/A   Clear
1:35 AM 30.0 °F 24.1 °F 24.3 °F 79% 30.39 in 10.0 mi WSW 5.8 mph - N/A   Clear
1:55 AM 29.3 °F 23.2 °F 23.9 °F 80% 30.40 in 10.0 mi SW 5.8 mph - N/A   Clear
2:15 AM 28.4 °F 22.2 °F 23.7 °F 83% 30.40 in 10.0 mi WSW 5.8 mph - N/A   Clear
2:35 AM 30.0 °F 25.2 °F 23.7 °F 77% 30.40 in 10.0 mi WSW 4.6 mph - N/A   Clear
2:55 AM 30.2 °F 24.3 °F 23.7 °F 77% 30.40 in 10.0 mi WSW 5.8 mph - N/A   Clear
3:15 AM 29.1 °F 24.1 °F 23.0 °F 78% 30.40 in 10.0 mi WSW 4.6 mph - N/A   Clear
3:35 AM 27.7 °F 21.3 °F 23.0 °F 83% 30.40 in 10.0 mi SW 5.8 mph - N/A   Clear
3:55 AM 27.5 °F 22.2 °F 22.8 °F 83% 30.39 in 10.0 mi SW 4.6 mph - N/A   Clear
4:15 AM 27.3 °F 20.9 °F 22.8 °F 83% 30.39 in 10.0 mi SW 5.8 mph - N/A   Clear
4:35 AM 27.9 °F 20.6 °F 23.0 °F 82% 30.40 in 10.0 mi SW 6.9 mph - N/A   Clear
4:55 AM 28.0 °F 20.8 °F 23.0 °F 81% 30.40 in 10.0 mi SW 6.9 mph - N/A   Clear
5:15 AM 27.7 °F 20.4 °F 23.0 °F 83% 30.40 in 10.0 mi SW 6.9 mph - N/A   Clear
5:35 AM 27.1 °F 19.7 °F 22.6 °F 83% 30.41 in 10.0 mi SW 6.9 mph - N/A   Clear
5:55 AM 27.5 °F 20.2 °F 22.8 °F 83% 30.41 in 10.0 mi SW 6.9 mph - N/A   Clear
6:15 AM 27.5 °F 20.2 °F 22.6 °F 82% 30.41 in 10.0 mi SW 6.9 mph - N/A   Clear
6:35 AM 27.1 °F 20.7 °F 22.3 °F 82% 30.41 in 10.0 mi SW 5.8 mph - N/A   Clear
6:55 AM 26.4 °F 18.9 °F 21.9 °F 83% 30.40 in 10.0 mi SW 6.9 mph - N/A   Clear
7:15 AM 26.6 °F 20.0 °F 22.1 °F 83% 30.40 in 10.0 mi SW 5.8 mph - N/A   Clear
7:35 AM 27.3 °F 20.9 °F 22.5 °F 82% 30.40 in 10.0 mi SW 5.8 mph - N/A   Clear
7:55 AM 28.2 °F 22.0 °F 22.8 °F 80% 30.40 in 10.0 mi SW 5.8 mph - N/A   Clear
8:15 AM 29.7 °F 22.8 °F 23.9 °F 79% 30.40 in 10.0 mi SSW 6.9 mph - N/A   Clear
8:35 AM 31.1 °F 25.4 °F 24.8 °F 77% 30.40 in 10.0 mi SSW 5.8 mph - N/A   Clear
8:55 AM 33.1 °F 26.9 °F 25.9 °F 75% 30.40 in 10.0 mi SSW 6.9 mph - N/A   Clear
9:15 AM 35.6 °F 27.5 °F 26.2 °F 69% 30.40 in 10.0 mi SSW 11.5 mph - N/A   Clear
9:35 AM 38.1 °F 31.2 °F 27.0 °F 64% 30.40 in 10.0 mi SSW 10.4 mph - N/A   Clear
9:55 AM 40.1 °F 32.4 °F 26.6 °F 59% 30.40 in 10.0 mi SSW 13.8 mph 17.3 mph N/A   Clear
10:15 AM 41.7 °F 34.8 °F 27.1 °F 56% 30.39 in 10.0 mi SW 12.7 mph - N/A   Clear
10:35 AM 43.9 °F 38.3 °F 28.0 °F 54% 30.39 in 10.0 mi SSW 10.4 mph - N/A   Clear
10:55 AM 46.0 °F 40.6 °F 28.0 °F 50% 30.38 in 10.0 mi SSW 11.5 mph 17.3 mph N/A   Clear
11:15 AM 47.5 °F - 26.2 °F 44% 30.37 in 10.0 mi SW 15.0 mph 19.6 mph N/A   Clear
11:35 AM 48.9 °F - 24.6 °F 39% 30.37 in 7.0 mi SW 17.3 mph 21.9 mph N/A   Clear
11:55 AM 50.0 °F - 24.3 °F 37% 30.36 in 7.0 mi SSW 17.3 mph 21.9 mph N/A   Clear
12:15 PM 50.4 °F - 24.1 °F 36% 30.35 in 7.0 mi SW 15.0 mph 24.2 mph N/A   Clear
12:35 PM 51.3 °F - 23.9 °F 34% 30.33 in 7.0 mi South 13.8 mph 20.7 mph N/A   Mostly Cloudy
12:55 PM 51.1 °F - 23.5 °F 34% 30.32 in 10.0 mi SW 15.0 mph 21.9 mph N/A   Mostly Cloudy
1:15 PM 53.1 °F - 25.0 °F 34% 30.31 in 7.0 mi SW 12.7 mph 19.6 mph N/A   Scattered Clouds
1:35 PM 53.1 °F - 24.4 °F 33% 30.30 in 5.0 mi SSW 17.3 mph 20.7 mph N/A   Haze
1:55 PM 53.1 °F - 24.8 °F 33% 30.28 in 7.0 mi SSW 18.4 mph 24.2 mph N/A   Clear
2:15 PM 53.8 °F - 24.8 °F 33% 30.26 in 7.0 mi SW 16.1 mph 21.9 mph N/A   Clear
2:35 PM 54.0 °F - 24.8 °F 32% 30.25 in 7.0 mi SSW 13.8 mph 23.0 mph N/A   Clear
2:55 PM 54.5 °F - 24.3 °F 31% 30.24 in 7.0 mi SSW 19.6 mph 25.3 mph N/A   Clear
3:15 PM 54.7 °F - 25.2 °F 32% 30.23 in 7.0 mi SSW 13.8 mph 23.0 mph N/A   Clear
3:35 PM 54.5 °F - 25.3 °F 32% 30.22 in 7.0 mi SW 15.0 mph 24.2 mph N/A   Clear
3:55 PM 54.5 °F - 25.0 °F 32% 30.21 in 7.0 mi SSW 18.4 mph 24.2 mph N/A   Clear
4:15 PM 54.5 °F - 25.5 °F 33% 30.21 in 10.0 mi SSW 15.0 mph 21.9 mph N/A   Clear
4:35 PM 54.1 °F - 25.7 °F 33% 30.20 in 7.0 mi South 13.8 mph 20.7 mph N/A   Clear
4:55 PM 53.6 °F - 25.5 °F 34% 30.18 in 7.0 mi SSW 12.7 mph 23.0 mph N/A   Clear
5:15 PM 52.7 °F - 25.9 °F 35% 30.17 in 7.0 mi SSW 11.5 mph 20.7 mph N/A   Clear
5:35 PM 52.0 °F - 26.1 °F 37% 30.16 in 7.0 mi SSW 12.7 mph 17.3 mph N/A   Clear
5:55 PM 50.7 °F - 26.4 °F 39% 30.15 in 10.0 mi SSW 9.2 mph - N/A   Clear
6:15 PM 49.1 °F - 26.6 °F 42% 30.14 in 10.0 mi South 9.2 mph - N/A   Clear
6:35 PM 48.2 °F - 27.0 °F 44% 30.13 in 10.0 mi South 9.2 mph - N/A   Clear
6:55 PM 47.5 °F - 27.1 °F 45% 30.13 in 10.0 mi South 8.1 mph - N/A   Clear
7:15 PM 46.6 °F - 27.3 °F 47% 30.12 in 10.0 mi SSW 9.2 mph - N/A   Clear
7:35 PM 46.0 °F 41.0 °F 27.0 °F 47% 30.12 in 10.0 mi South 10.4 mph - N/A   Clear
7:55 PM 45.7 °F 39.5 °F 26.6 °F 47% 30.11 in 10.0 mi South 13.8 mph 18.4 mph N/A   Clear
8:15 PM 45.5 °F 39.6 °F 26.1 °F 47% 30.10 in 10.0 mi South 12.7 mph 19.6 mph N/A   Clear
8:35 PM 45.5 °F 39.2 °F 25.7 °F 46% 30.09 in 10.0 mi SSW 13.8 mph 19.6 mph N/A   Clear
8:55 PM 46.4 °F 40.4 °F 24.8 °F 43% 30.09 in 10.0 mi SSW 13.8 mph 21.9 mph N/A   Clear
9:15 PM 45.9 °F 40.0 °F 24.8 °F 44% 30.09 in 10.0 mi SSW 12.7 mph 19.6 mph N/A   Clear
9:35 PM 45.5 °F 39.6 °F 25.0 °F 45% 30.09 in 10.0 mi SSW 12.7 mph - N/A   Clear
9:55 PM 45.5 °F 38.9 °F 25.2 °F 45% 30.09 in 10.0 mi SSW 15.0 mph 20.7 mph N/A   Clear
10:15 PM 44.8 °F 38.7 °F 25.3 °F 47% 30.09 in 10.0 mi SSW 12.7 mph 17.3 mph N/A   Clear
10:35 PM 44.2 °F 38.8 °F 25.3 °F 47% 30.09 in 10.0 mi SSW 10.4 mph - N/A   Clear
10:55 PM 43.7 °F 38.1 °F 25.5 °F 49% 30.09 in 10.0 mi SSW 10.4 mph 17.3 mph N/A   Clear
11:15 PM 43.3 °F 36.1 °F 25.7 °F 50% 30.07 in 10.0 mi SSW 15.0 mph 18.4 mph N/A   Clear
11:35 PM 43.3 °F 36.8 °F 25.7 °F 50% 30.07 in 10.0 mi SSW 12.7 mph - N/A   Clear
11:55 PM 43.2 °F 37.0 °F 25.7 °F 50% 30.06 in 10.0 mi SSW 11.5 mph - N/A   Clear